QPF
0.00 0.00 0.00 0.00 0.00 0.00 0.00 0.00 0.00 0.00 0.00 0.00 0.00 0.00 0.00 0.00 0.00 0.00 0.00 0.00 0.00 0.00 0.00 0.00 0.00 0.00 0.00 0.00 0.00 0.00 0.00 0.00 0.00 0.01 0.01 0.01 0.01 0.03 0.06 0.07 0.08 0.09 0.28 0.41
0.00 0.00 0.00 0.00 0.00 0.00 0.00 0.00 0.00 0.00 0.00 0.00 0.00 0.00 0.00 0.00 0.00 0.00 0.00 0.00 0.00 0.00 0.00 0.00 0.00 0.00 0.00 0.00 0.00 0.00 0.00 0.00 0.00 0.00 0.01 0.01 0.00 0.00 0.02 0.07 0.05 0.03 0.16 0.31
0.00 0.00 0.00 0.00 0.00 0.00 0.00 0.00 0.00 0.00 0.00 0.00 0.00 0.00 0.00 0.00 0.00 0.00 0.00 0.00 0.00 0.00 0.00 0.00 0.00 0.00 0.00 0.00 0.00 0.00 0.00 0.00 0.00 0.00 0.01 0.01 0.01 0.00 0.00 0.01 0.02 0.01 0.12 0.15
0.00 0.00 0.00 0.00 0.00 0.00 0.00 0.00 0.00 0.00 0.00 0.00 0.00 0.00 0.00 0.00 0.00 0.00 0.00 0.00 0.00 0.00 0.00 0.00 0.00 0.00 0.00 0.00 0.00 0.00 0.00 0.00 0.01 0.01 0.01 0.01 0.01 0.01 0.01 0.00 0.00 0.03 0.08 0.25
0.00 0.00 0.00 0.00 0.00 0.00 0.00 0.00 0.00 0.00 0.00 0.00 0.00 0.00 0.00 0.00 0.00 0.00 0.00 0.00 0.00 0.00 0.00 0.00 0.00 0.00 0.00 0.00 0.00 0.00 0.00 0.00 0.00 0.01 0.01 0.01 0.01 0.01 0.01 0.01 0.01 0.01 0.09 0.21
0.00 0.00 0.00 0.00 0.00 0.00 0.00 0.00 0.00 0.00 0.00 0.00 0.00 0.00 0.00 0.00 0.00 0.00 0.00 0.00 0.00 0.00 0.00 0.00 0.00 0.00 0.00 0.00 0.00 0.00 0.00 0.00 0.00 0.00 0.00 0.00 0.01 0.01 0.01 0.01 0.01 0.00 0.00 0.04
0.00 0.00 0.00 0.00 0.00 0.00 0.00 0.00 0.00 0.00 0.00 0.00 0.00 0.00 0.00 0.00 0.00 0.00 0.00 0.00 0.00 0.00 0.00 0.00 0.00 0.00 0.00 0.00 0.00 0.00 0.00 0.00 0.00 0.00 0.00 0.00 0.00 0.00 0.00 0.00 0.00 0.00 0.00 0.00
0.00 0.00 0.00 0.00 0.00 0.00 0.00 0.00 0.00 0.00 0.00 0.00 0.00 0.00 0.00 0.00 0.00 0.00 0.00 0.00 0.00 0.00 0.00 0.00 0.00 0.00 0.00 0.00 0.00 0.00 0.00 0.00 0.00 0.00 0.00 0.00 0.00 0.00 0.00 0.00 0.00 0.00 0.00 0.00
0.00 0.00 0.00 0.00 0.00 0.00 0.00 0.00 0.00 0.00 0.00 0.00 0.00 0.00 0.00 0.00 0.00 0.00 0.00 0.00 0.00 0.00 0.00 0.00 0.00 0.00 0.00 0.00 0.00 0.00 0.00 0.00 0.00 0.00 0.00 0.00 0.00 0.00 0.00 0.00 0.00 0.00 0.00 0.00
0.00 0.00 0.00 0.00 0.00 0.00 0.00 0.00 0.00 0.00 0.00 0.00 0.00 0.00 0.00 0.00 0.00 0.00 0.00 0.00 0.00 0.00 0.00 0.00 0.00 0.00 0.00 0.00 0.00 0.00 0.00 0.00 0.00 0.00 0.00 0.00 0.00 0.00 0.00 0.00 0.00 0.00 0.00 0.00
0.00 0.00 0.00 0.00 0.00 0.00 0.00 0.00 0.00 0.00 0.00 0.00 0.00 0.00 0.00 0.00 0.00 0.00 0.00 0.00 0.00 0.00 0.00 0.00 0.00 0.00 0.00 0.00 0.00 0.00 0.00 0.00 0.00 0.00 0.00 0.00 0.00 0.00 0.00 0.00 0.00 0.00 0.00 0.00
0.00 0.00 0.00 0.00 0.00 0.00 0.00 0.00 0.00 0.00 0.00 0.00 0.00 0.00 0.00 0.00 0.00 0.00 0.00 0.00 0.00 0.00 0.00 0.00 0.00 0.00 0.00 0.00 0.00 0.00 0.00 0.00 0.00 0.00 0.00 0.00 0.00 0.00 0.00 0.00 0.00 0.00 0.00 0.00
0.00 0.00 0.00 0.00 0.00 0.00 0.00 0.00 0.00 0.00 0.00 0.00 0.01 0.00 0.00 0.00 0.00 0.00 0.00 0.00 0.00 0.00 0.00 0.00 0.00 0.00 0.00 0.00 0.00 0.00 0.00 0.00 0.00 0.00 0.00 0.00 0.00 0.00 0.00 0.00 0.00 0.00 0.00 0.00
0.00 0.00 0.00 0.00 0.00 0.00 0.00 0.00 0.00 0.00 0.00 0.00 0.00 0.00 0.00 0.00 0.00 0.00 0.00 0.00 0.00 0.00 0.00 0.00 0.00 0.00 0.00 0.00 0.00 0.00 0.00 0.00 0.00 0.00 0.00 0.00 0.00 0.00 0.00 0.00 0.00 0.00 0.00 0.00
0.00 0.00 0.00 0.00 0.00 0.00 0.00 0.00 0.00 0.00 0.00 0.00 0.00 0.00 0.00 0.00 0.00 0.00 0.00 0.00 0.00 0.00 0.00 0.00 0.00 0.00 0.00 0.00 0.00 0.00 0.00 0.00 0.00 0.00 0.00 0.00 0.00 0.00 0.00 0.00 0.00 0.00 0.00 0.00
0.00 0.00 0.00 0.00 0.00 0.00 0.00 0.00 0.00 0.00 0.00 0.00 0.00 0.00 0.00 0.00 0.00 0.00 0.00 0.00 0.00 0.00 0.00 0.00 0.00 0.00 0.00 0.00 0.00 0.00 0.00 0.00 0.00 0.00 0.00 0.00 0.00 0.00 0.00 0.00 0.00 0.00 0.00 0.00
0.00 0.00 0.00 0.00 0.00 0.00 0.00 0.00 0.00 0.00 0.00 0.00 0.00 0.00 0.00 0.00 0.00 0.00 0.00 0.00 0.00 0.00 0.00 0.00 0.00 0.00 0.00 0.00 0.00 0.00 0.00 0.00 0.00 0.00 0.00 0.00 0.00 0.00 0.00 0.00 0.00 0.00 0.00 0.00
0.00 0.00 0.00 0.00 0.00 0.00 0.00 0.00 0.00 0.00 0.00 0.00 0.00 0.00 0.00 0.00 0.00 0.00 0.00 0.00 0.00 0.00 0.00 0.00 0.00 0.00 0.00 0.00 0.00 0.00 0.00 0.00 0.00 0.00 0.00 0.00 0.00 0.00 0.00 0.00 0.00 0.00 0.00 0.00
0.00 0.00 0.00 0.00 0.00 0.00 0.00 0.00 0.00 0.00 0.00 0.00 0.00 0.00 0.00 0.00 0.00 0.00 0.00 0.00 0.00 0.00 0.00 0.00 0.00 0.00 0.00 0.00 0.00 0.00 0.00 0.00 0.00 0.00 0.00 0.00 0.00 0.00 0.00 0.00 0.00 0.00 0.00 0.00
0.00 0.01 0.01 0.00 0.00 0.00 0.00 0.00 0.00 0.00 0.00 0.00 0.00 0.00 0.00 0.00 0.00 0.00 0.00 0.00 0.00 0.00 0.00 0.00 0.00 0.00 0.00 0.00 0.00 0.00 0.00 0.00 0.00 0.00 0.00 0.00 0.00 0.00 0.00 0.00 0.00 0.00 0.00 0.00
0.00 0.01 0.02 0.00 0.01 0.00 0.00 0.00 0.00 0.00 0.00 0.00 0.00 0.00 0.00 0.00 0.00 0.00 0.00 0.00 0.00 0.00 0.00 0.00 0.00 0.00 0.00 0.00 0.00 0.00 0.00 0.00 0.00 0.00 0.00 0.00 0.00 0.00 0.00 0.00 0.00 0.00 0.00 0.00
0.00 0.00 0.00 0.00 0.01 0.00 0.00 0.00 0.00 0.00 0.00 0.00 0.00 0.00 0.00 0.00 0.00 0.00 0.00 0.00 0.00 0.00 0.00 0.00 0.00 0.00 0.00 0.00 0.00 0.00 0.00 0.00 0.00 0.00 0.00 0.00 0.00 0.00 0.00 0.00 0.00 0.00 0.00 0.00
0.00 0.00 0.00 0.00 0.00 0.00 0.00 0.00 0.00 0.00 0.00 0.00 0.00 0.00 0.00 0.00 0.00 0.00 0.00 0.00 0.00 0.00 0.00 0.00 0.00 0.00 0.00 0.00 0.00 0.00 0.00 0.00 0.00 0.00 0.00 0.00 0.00 0.00 0.00 0.00 0.00 0.00 0.00 0.00
0.00 0.00 0.00 0.00 0.00 0.00 0.00 0.00 0.00 0.00 0.00 0.00 0.00 0.00 0.00 0.00 0.00 0.00 0.00 0.00 0.00 0.00 0.00 0.00 0.00 0.00 0.00 0.00 0.00 0.00 0.00 0.00 0.00 0.00 0.00 0.00 0.00 0.00 0.00 0.00 0.00 0.00 0.00 0.00
0.00 0.00 0.00 0.00 0.00 0.00 0.00 0.00 0.00 0.00 0.00 0.00 0.00 0.00 0.00 0.00 0.00 0.00 0.00 0.00 0.00 0.00 0.00 0.00 0.00 0.00 0.00 0.00 0.00 0.00 0.00 0.00 0.00 0.00 0.00 0.00 0.00 0.00 0.00 0.00 0.00 0.00 0.00 0.00
0.00 0.00 0.00 0.00 0.00 0.00 0.00 0.01 0.01 0.00 0.01 0.01 0.00 0.00 0.00 0.00 0.00 0.00 0.00 0.00 0.00 0.00 0.00 0.00 0.00 0.00 0.00 0.00 0.00 0.00 0.00 0.00 0.00 0.00 0.00 0.00 0.00 0.00 0.00 0.00 0.00 0.00 0.00 0.00
MSLP
1023.06 1023.57 1023.87 1023.85 1023.66 1023.71 1023.72 1023.77 1023.68 1023.21 1022.60 1022.80 1022.91 1023.30 1023.67 1023.93 1023.93 1024.08 1024.01 1023.70 1023.43 1022.92 1022.70 1022.17 1021.58 1020.99 1020.10 1019.32 1018.47 1017.62 1016.68 1015.97 1016.03 1016.56 1017.13 1017.55 1017.89 1018.43 1018.73 1019.10 1019.54 1019.54 1020.34 1020.93
1023.61 1023.62 1023.44 1023.50 1023.56 1023.65 1023.87 1023.90 1023.76 1023.23 1022.95 1022.98 1023.11 1023.46 1023.98 1024.25 1024.56 1024.63 1024.48 1024.38 1024.15 1023.55 1022.92 1022.45 1022.02 1021.35 1020.77 1020.25 1019.30 1018.34 1017.48 1016.67 1016.33 1016.59 1017.13 1017.45 1017.84 1018.43 1018.84 1019.24 1019.67 1019.90 1020.67 1020.96
1023.72 1023.48 1023.35 1023.46 1023.57 1023.64 1023.65 1023.81 1023.74 1023.57 1023.40 1023.35 1023.54 1023.71 1024.09 1024.49 1024.73 1024.93 1024.85 1024.84 1024.57 1024.27 1023.76 1023.18 1022.65 1022.22 1021.72 1020.97 1020.16 1019.30 1018.21 1017.19 1016.85 1017.03 1017.37 1017.79 1018.12 1018.69 1019.26 1019.72 1020.13 1020.55 1020.78 1021.46
1023.71 1023.28 1023.19 1023.24 1023.25 1023.24 1023.46 1023.16 1023.62 1023.99 1024.36 1024.70 1024.35 1024.38 1024.00 1024.31 1025.02 1025.42 1025.51 1025.27 1025.10 1024.88 1024.49 1024.11 1023.66 1022.93 1022.39 1021.83 1021.10 1020.19 1019.34 1018.53 1018.03 1017.86 1017.82 1017.88 1018.10 1018.50 1019.04 1019.65 1020.30 1020.78 1021.14 1021.55
1023.23 1023.17 1023.18 1023.08 1022.72 1022.92 1023.13 1023.34 1024.09 1024.61 1025.28 1025.54 1025.46 1025.78 1023.71 1024.46 1025.05 1025.47 1025.79 1025.82 1025.68 1025.56 1025.24 1024.85 1024.44 1023.98 1023.44 1022.73 1022.05 1021.29 1020.51 1019.66 1019.15 1018.61 1018.49 1018.48 1018.64 1018.91 1019.28 1019.86 1020.48 1020.90 1021.36 1021.59
1023.41 1023.07 1022.93 1022.44 1022.34 1022.59 1023.17 1024.04 1025.14 1026.07 1026.64 1026.75 1025.67 1025.63 1023.53 1024.08 1024.18 1025.39 1025.95 1026.12 1026.13 1025.93 1025.62 1025.31 1024.99 1024.50 1023.99 1023.44 1022.73 1022.01 1021.28 1020.89 1020.24 1019.85 1019.60 1019.29 1019.17 1019.40 1019.65 1020.01 1020.53 1021.10 1021.45 1021.80
1023.76 1023.17 1022.46 1022.22 1022.57 1022.97 1023.43 1024.63 1026.62 1027.80 1028.40 1027.04 1026.16 1026.06 1023.23 1023.39 1023.84 1024.65 1025.76 1026.20 1026.35 1026.31 1025.99 1025.64 1025.26 1024.93 1024.52 1024.14 1023.64 1022.94 1022.30 1021.70 1021.29 1020.85 1020.65 1020.39 1020.07 1019.77 1019.86 1020.05 1020.33 1020.87 1021.30 1021.63
1024.76 1023.57 1022.85 1022.46 1022.41 1022.76 1023.49 1024.29 1026.24 1027.50 1028.81 1027.53 1026.52 1025.38 1023.52 1023.87 1024.27 1024.88 1025.48 1025.95 1026.13 1026.34 1026.26 1026.06 1025.81 1025.56 1025.19 1024.80 1024.40 1023.95 1023.37 1022.88 1022.41 1021.99 1021.63 1021.29 1021.02 1020.64 1020.27 1020.06 1020.19 1020.44 1020.65 1020.87
1025.19 1024.29 1023.19 1022.98 1022.85 1023.15 1023.90 1024.58 1024.96 1027.17 1029.23 1028.33 1025.94 1024.58 1024.40 1024.68 1025.03 1025.44 1025.63 1025.81 1025.96 1026.12 1026.24 1026.17 1025.98 1025.86 1025.72 1025.36 1024.92 1024.60 1024.21 1023.87 1023.37 1023.04 1022.62 1022.06 1021.74 1021.41 1020.98 1020.55 1020.29 1020.22 1020.25 1020.40
1025.51 1025.33 1024.13 1023.76 1023.68 1023.75 1023.92 1024.40 1025.71 1027.01 1028.40 1028.26 1026.20 1025.44 1024.33 1024.80 1025.26 1025.70 1025.96 1025.96 1025.98 1026.08 1026.15 1026.16 1026.08 1025.92 1025.76 1025.56 1025.31 1024.93 1024.62 1024.35 1024.03 1023.64 1023.27 1022.94 1022.48 1021.94 1021.56 1020.91 1020.68 1020.40 1020.14 1020.12
1026.03 1026.27 1025.46 1024.96 1024.80 1024.68 1024.92 1025.09 1025.94 1026.57 1027.31 1027.71 1027.01 1025.04 1024.45 1024.51 1024.75 1025.27 1025.61 1025.87 1026.07 1026.17 1026.13 1026.12 1025.98 1025.84 1025.73 1025.50 1025.37 1025.17 1024.88 1024.57 1024.20 1023.96 1023.71 1023.33 1022.92 1022.59 1022.16 1021.82 1021.38 1020.86 1020.47 1020.19
1026.58 1027.18 1027.29 1026.39 1026.08 1025.98 1025.87 1025.91 1026.46 1027.47 1028.09 1028.07 1027.61 1025.27 1024.76 1024.14 1024.12 1024.92 1025.51 1025.74 1026.00 1026.14 1026.11 1026.04 1025.89 1025.69 1025.61 1025.60 1025.48 1025.33 1025.02 1024.82 1024.72 1024.41 1024.00 1023.68 1023.27 1022.92 1022.65 1022.29 1021.91 1021.44 1020.83 1020.38
1027.28 1028.46 1028.83 1027.88 1027.56 1026.97 1026.78 1026.93 1027.46 1028.20 1028.59 1028.52 1028.12 1025.67 1025.20 1024.93 1025.03 1025.40 1025.65 1025.68 1025.69 1025.74 1025.82 1025.83 1025.82 1025.78 1025.61 1025.55 1025.39 1025.26 1025.12 1025.06 1024.87 1024.59 1024.40 1024.03 1023.66 1023.24 1022.88 1022.67 1022.20 1021.65 1021.07 1020.44
1027.80 1029.29 1029.86 1029.64 1028.91 1028.41 1028.07 1027.83 1028.16 1028.83 1029.99 1029.17 1027.53 1026.48 1026.14 1025.84 1025.69 1025.61 1025.53 1025.51 1025.68 1025.81 1025.85 1025.75 1025.77 1025.72 1025.61 1025.47 1025.42 1025.37 1025.21 1025.04 1024.91 1024.74 1024.48 1024.39 1024.05 1023.69 1023.26 1022.86 1022.45 1021.89 1021.38 1020.70
1028.92 1030.25 1030.63 1030.39 1030.06 1029.41 1028.58 1028.54 1028.72 1029.30 1029.37 1029.34 1027.60 1026.64 1026.30 1025.64 1025.67 1025.67 1025.51 1025.44 1025.65 1025.64 1025.60 1025.53 1025.35 1025.11 1025.06 1025.12 1025.02 1025.06 1025.16 1025.16 1025.10 1025.05 1024.95 1024.71 1024.34 1024.07 1023.57 1023.03 1022.50 1022.07 1021.61 1020.96
1029.69 1030.53 1031.38 1031.37 1030.59 1029.82 1028.98 1028.32 1028.27 1028.60 1028.59 1027.93 1027.21 1025.46 1025.80 1025.34 1025.57 1025.63 1025.76 1025.85 1025.83 1025.76 1025.52 1025.20 1025.07 1024.91 1024.76 1024.65 1024.65 1024.59 1024.67 1024.90 1025.11 1025.42 1025.36 1024.93 1024.49 1024.19 1023.84 1023.27 1022.82 1022.15 1021.76 1021.23
1030.13 1030.81 1031.97 1032.07 1031.58 1030.48 1028.65 1026.60 1026.53 1026.88 1026.61 1026.75 1026.88 1025.02 1025.30 1025.55 1025.54 1025.53 1025.71 1025.83 1025.91 1025.79 1025.29 1025.03 1024.82 1024.52 1024.34 1024.30 1024.16 1024.39 1024.29 1024.56 1025.18 1025.38 1025.23 1025.03 1024.72 1024.37 1023.81 1023.38 1022.90 1022.44 1021.84 1021.35
1029.93 1030.87 1031.75 1032.49 1032.29 1030.54 1026.74 1025.74 1025.54 1025.61 1025.20 1025.64 1025.36 1024.70 1024.72 1025.01 1024.59 1024.55 1025.29 1025.60 1025.43 1025.10 1024.88 1024.70 1024.42 1024.08 1023.81 1023.57 1023.74 1023.94 1024.20 1024.41 1024.70 1024.81 1024.88 1024.68 1024.52 1024.30 1023.64 1023.31 1022.91 1022.42 1021.93 1021.50
1029.69 1030.29 1031.46 1032.12 1032.15 1029.03 1026.21 1025.23 1025.47 1025.38 1023.93 1024.27 1024.39 1023.41 1023.69 1024.14 1024.16 1023.72 1024.31 1024.60 1024.65 1024.55 1024.18 1023.92 1023.62 1023.52 1023.38 1023.19 1022.94 1023.30 1023.66 1023.91 1024.17 1024.10 1024.13 1024.14 1024.14 1024.15 1023.75 1023.40 1022.80 1022.22 1021.73 1021.19
1030.06 1029.90 1030.34 1031.43 1031.18 1029.02 1025.62 1024.44 1024.22 1024.39 1023.15 1022.78 1022.87 1023.15 1023.47 1023.94 1024.15 1023.29 1023.96 1024.18 1024.09 1023.95 1023.85 1023.55 1023.05 1023.09 1023.29 1022.41 1022.67 1023.00 1022.81 1023.15 1023.33 1022.97 1023.00 1023.12 1023.34 1023.46 1023.52 1023.00 1022.53 1022.01 1021.65 1021.03
1030.36 1029.97 1029.26 1029.16 1029.27 1026.98 1025.24 1024.53 1024.57 1024.65 1023.60 1022.54 1022.64 1022.94 1023.32 1023.84 1023.69 1022.82 1023.39 1023.53 1023.41 1023.43 1023.39 1022.97 1022.92 1023.15 1022.36 1022.07 1022.32 1022.19 1022.08 1022.26 1021.31 1021.68 1022.02 1022.36 1022.58 1022.72 1022.62 1022.32 1022.01 1021.63 1021.19 1020.64
1029.11 1029.18 1029.03 1028.82 1028.11 1026.37 1024.24 1024.61 1024.45 1023.01 1022.65 1022.61 1022.67 1022.93 1023.01 1022.97 1022.82 1022.82 1023.01 1023.11 1023.14 1023.06 1022.97 1022.66 1022.73 1022.42 1021.70 1021.71 1021.94 1021.63 1021.38 1019.96 1020.68 1021.04 1021.41 1021.49 1021.63 1021.85 1021.87 1021.78 1021.39 1021.13 1020.84 1020.25
1028.55 1027.05 1027.04 1026.81 1025.33 1024.18 1023.69 1023.03 1022.78 1023.10 1023.04 1022.96 1022.77 1022.51 1022.81 1022.99 1022.94 1022.92 1022.97 1022.90 1022.83 1022.81 1022.85 1022.76 1022.90 1022.25 1021.59 1021.56 1021.52 1021.17 1019.95 1020.56 1020.51 1020.67 1020.48 1020.51 1020.75 1020.94 1021.05 1021.15 1020.81 1020.53 1020.27 1019.97
1027.06 1026.41 1026.56 1026.18 1024.12 1023.94 1023.54 1023.17 1023.19 1023.25 1023.39 1023.26 1023.44 1023.49 1023.65 1023.74 1023.66 1023.41 1023.30 1023.08 1022.99 1022.98 1022.86 1022.93 1023.06 1022.67 1021.82 1021.59 1021.32 1020.81 1020.21 1020.18 1019.98 1019.93 1019.82 1019.77 1019.99 1020.13 1020.35 1020.35 1020.14 1019.96 1019.57 1019.28
1026.55 1026.72 1026.22 1025.28 1024.35 1023.99 1023.59 1024.28 1024.43 1024.29 1024.36 1024.49 1024.54 1024.67 1024.68 1024.58 1024.12 1023.93 1023.59 1023.53 1023.45 1023.43 1023.35 1023.33 1023.21 1022.85 1022.18 1021.86 1021.38 1021.05 1020.62 1020.36 1019.93 1019.49 1019.28 1019.20 1019.20 1019.33 1019.53 1019.51 1019.37 1019.16 1018.67 1018.52
1026.78 1026.97 1026.93 1026.08 1026.70 1026.43 1025.41 1025.52 1025.60 1025.55 1025.56 1025.64 1025.64 1025.49 1025.51 1025.54 1025.14 1024.78 1024.31 1024.22 1024.13 1023.90 1023.82 1023.62 1023.35 1022.90 1022.24 1022.02 1021.66 1021.23 1020.90 1020.47 1020.15 1019.50 1018.94 1018.75 1018.78 1018.83 1018.87 1018.78 1018.47 1018.29 1017.79 1017.49
Thickness
5510 5507 5501 5503 5501 5505 5501 5501 5498 5495 5502 5504 5503 5497 5491 5488 5486 5483 5483 5485 5488 5494 5499 5506 5513 5522 5534 5544 5554 5565 5575 5585 5586 5584 5583 5582 5581 5580 5582 5581 5581 5585 5581 5577
5502 5499 5504 5501 5494 5495 5494 5492 5488 5492 5494 5498 5494 5495 5486 5482 5479 5477 5477 5476 5478 5483 5490 5496 5502 5510 5519 5526 5538 5549 5559 5568 5575 5575 5573 5574 5573 5571 5571 5570 5571 5574 5571 5569
5495 5504 5494 5494 5490 5489 5486 5483 5483 5490 5490 5487 5484 5485 5478 5476 5473 5471 5472 5471 5472 5473 5477 5482 5488 5493 5501 5510 5521 5532 5544 5556 5562 5562 5561 5561 5562 5560 5558 5557 5558 5560 5562 5559
5484 5491 5492 5489 5486 5483 5485 5483 5481 5481 5475 5461 5474 5458 5477 5470 5465 5459 5456 5459 5463 5464 5467 5470 5473 5480 5486 5494 5503 5513 5525 5534 5542 5546 5549 5552 5555 5556 5552 5549 5549 5549 5550 5550
5491 5489 5483 5480 5483 5476 5480 5475 5471 5472 5458 5455 5455 5435 5474 5456 5457 5455 5449 5448 5449 5453 5456 5459 5461 5466 5470 5477 5485 5495 5504 5514 5521 5530 5535 5538 5541 5541 5541 5539 5538 5539 5539 5540
5470 5475 5478 5479 5479 5469 5461 5458 5442 5431 5432 5389 5443 5449 5478 5453 5460 5444 5441 5437 5436 5440 5445 5449 5452 5456 5460 5465 5471 5479 5488 5494 5502 5509 5515 5522 5527 5527 5528 5529 5528 5527 5529 5529
5462 5465 5470 5473 5470 5461 5457 5443 5375 5380 5350 5408 5424 5427 5469 5456 5447 5443 5431 5428 5425 5426 5431 5437 5441 5445 5449 5453 5458 5465 5471 5478 5485 5492 5495 5501 5508 5515 5518 5520 5520 5519 5519 5520
5426 5439 5456 5462 5460 5453 5442 5436 5390 5385 5374 5406 5422 5419 5463 5435 5428 5425 5422 5421 5419 5418 5420 5424 5428 5431 5435 5440 5445 5449 5455 5461 5466 5473 5479 5484 5490 5497 5504 5511 5513 5513 5514 5516
5405 5431 5445 5444 5446 5445 5430 5416 5429 5356 5329 5357 5417 5434 5422 5416 5409 5407 5411 5413 5413 5412 5412 5414 5417 5418 5421 5426 5432 5436 5440 5445 5451 5455 5461 5468 5474 5480 5487 5494 5501 5504 5508 5509
5415 5396 5428 5431 5426 5425 5421 5417 5393 5364 5356 5356 5387 5399 5437 5407 5399 5393 5395 5400 5403 5402 5402 5403 5405 5408 5411 5414 5418 5424 5429 5433 5438 5443 5447 5452 5458 5465 5472 5481 5486 5492 5497 5500
5395 5390 5406 5410 5409 5403 5385 5377 5377 5387 5374 5346 5346 5403 5401 5401 5397 5387 5383 5384 5385 5386 5388 5390 5394 5397 5400 5404 5407 5411 5417 5422 5428 5432 5435 5440 5445 5450 5456 5462 5469 5477 5483 5490
5383 5364 5349 5380 5377 5373 5375 5379 5374 5352 5360 5345 5347 5392 5372 5377 5383 5378 5371 5372 5370 5371 5374 5377 5381 5386 5390 5392 5396 5399 5404 5409 5413 5418 5424 5428 5433 5438 5442 5448 5454 5461 5469 5476
5358 5320 5292 5345 5351 5355 5359 5358 5346 5307 5321 5339 5357 5382 5362 5361 5361 5361 5355 5352 5357 5360 5361 5364 5366 5368 5373 5377 5381 5385 5389 5393 5398 5404 5409 5415 5420 5425 5430 5434 5441 5447 5454 5464
5348 5309 5306 5326 5337 5320 5337 5339 5331 5292 5268 5290 5330 5333 5344 5347 5347 5347 5348 5345 5343 5343 5344 5345 5345 5349 5354 5360 5362 5366 5372 5377 5382 5387 5393 5398 5404 5411 5417 5421 5427 5434 5441 5450
5316 5293 5272 5276 5294 5301 5313 5315 5310 5285 5264 5286 5311 5307 5298 5325 5321 5317 5326 5334 5333 5332 5332 5333 5337 5341 5341 5344 5348 5350 5353 5359 5364 5368 5372 5377 5385 5392 5400 5408 5415 5421 5427 5436
5293 5281 5278 5266 5287 5289 5290 5300 5298 5301 5286 5291 5311 5318 5321 5323 5315 5314 5312 5309 5315 5310 5313 5316 5320 5323 5328 5330 5333 5335 5338 5341 5345 5346 5351 5359 5366 5374 5383 5391 5399 5407 5413 5421
5284 5270 5253 5244 5259 5262 5267 5295 5304 5285 5283 5283 5267 5312 5305 5289 5298 5292 5298 5290 5290 5293 5296 5300 5302 5305 5312 5313 5318 5320 5323 5322 5322 5325 5332 5340 5346 5355 5365 5374 5383 5391 5399 5407
5270 5263 5245 5222 5221 5211 5308 5301 5296 5291 5302 5277 5275 5284 5290 5269 5291 5295 5276 5274 5279 5278 5279 5282 5286 5290 5294 5298 5300 5300 5299 5301 5302 5307 5314 5321 5327 5336 5347 5355 5365 5374 5383 5391
5270 5263 5229 5230 5170 5251 5299 5281 5269 5265 5292 5280 5276 5294 5286 5277 5281 5294 5274 5263 5266 5266 5270 5272 5274 5274 5271 5275 5277 5277 5279 5278 5278 5290 5298 5304 5309 5318 5326 5337 5347 5358 5368 5378
5252 5257 5256 5196 5213 5184 5278 5282 5270 5267 5275 5279 5273 5273 5268 5260 5252 5282 5252 5249 5251 5250 5252 5255 5260 5254 5252 5263 5252 5253 5262 5257 5266 5273 5280 5284 5291 5300 5308 5320 5329 5340 5351 5362
5231 5238 5248 5249 5233 5221 5261 5265 5254 5217 5252 5267 5258 5256 5253 5241 5239 5261 5240 5242 5237 5239 5241 5236 5236 5239 5246 5241 5238 5241 5241 5242 5259 5253 5261 5265 5272 5281 5291 5303 5313 5324 5335 5348
5239 5219 5209 5205 5187 5199 5253 5236 5230 5246 5247 5245 5243 5238 5233 5236 5236 5235 5233 5230 5228 5228 5225 5225 5225 5229 5234 5224 5225 5228 5229 5246 5238 5237 5242 5248 5254 5262 5272 5284 5296 5307 5318 5332
5224 5240 5226 5221 5220 5233 5228 5229 5223 5212 5218 5221 5219 5222 5216 5215 5215 5215 5216 5217 5218 5216 5216 5210 5207 5213 5220 5212 5213 5217 5229 5221 5221 5223 5232 5236 5237 5245 5253 5263 5276 5290 5302 5314
5215 5198 5202 5198 5229 5220 5219 5211 5203 5201 5197 5200 5193 5190 5186 5183 5186 5193 5194 5195 5194 5194 5193 5190 5187 5191 5199 5199 5202 5205 5211 5210 5213 5217 5222 5225 5226 5230 5234 5244 5257 5270 5285 5298
5220 5194 5186 5194 5216 5209 5208 5184 5179 5180 5176 5171 5166 5161 5158 5159 5165 5166 5170 5169 5169 5168 5167 5166 5167 5170 5177 5179 5183 5185 5189 5192 5198 5204 5211 5213 5216 5217 5219 5226 5237 5251 5269 5282
5195 5188 5190 5191 5156 5153 5166 5156 5150 5148 5145 5140 5136 5135 5133 5130 5134 5137 5142 5142 5142 5143 5142 5143 5145 5150 5156 5158 5163 5166 5167 5172 5178 5188 5197 5201 5202 5204 5207 5211 5221 5234 5250 5267